����,���ϕ���(m/s),���ϕ���,�ő�u�ԕ���(m/s),�ő啗��������,�C��(��),���x(%),10���Ԉړ��ώZ�J��(mm),1���Ԉړ��ώZ�J��(mm),���J��(mm),�݌v�J��(mm)
2021-09-27T00:00:00+09:00,0.8,���k��,1.4,���쐼,16.8,96.8,0,0,0,0
2021-09-27T00:01:00+09:00,0.7,�k��,1.3,��,16.8,96.8,0,0,0,0
2021-09-27T00:02:00+09:00,0.7,�k��,1.3,��,16.7,96.7,0,0,0,0
2021-09-27T00:03:00+09:00,0.7,�k��,1.2,�k��,16.7,96.6,0,0,0,0
2021-09-27T00:04:00+09:00,0.7,�k��,1.2,�k��,16.7,96.6,0,0,0,0
2021-09-27T00:05:00+09:00,0.6,�k��,1.2,�k��,16.7,96.6,0,0,0,0
2021-09-27T00:06:00+09:00,0.6,�k��,1.2,�k��,16.7,96.7,0,0,0,0
2021-09-27T00:07:00+09:00,0.6,�k��,1.2,�k��,16.8,96.7,0,0,0,0
2021-09-27T00:08:00+09:00,0.6,�k��,1.2,�k��,16.7,96.7,0,0,0,0
2021-09-27T00:09:00+09:00,0.5,���k��,1.2,�k��,16.6,96.6,0,0,0,0
2021-09-27T00:10:00+09:00,0.5,���k��,1.2,�k��,16.6,96.4,0,0,0,0
2021-09-27T00:11:00+09:00,0.5,���k��,1.2,�k��,16.7,96.5,0,0,0,0
2021-09-27T00:12:00+09:00,0.4,���k��,1.1,�k��,16.7,96.6,0,0,0,0
2021-09-27T00:13:00+09:00,0.4,���k��,0.9,�k��,16.6,96.6,0,0,0,0
2021-09-27T00:14:00+09:00,0.4,���k��,0.9,�k��,16.6,96.6,0,0,0,0
2021-09-27T00:15:00+09:00,0.4,�k��,0.9,�k��,16.6,96.6,0,0,0,0
2021-09-27T00:16:00+09:00,0.4,�k��,1,�k�k��,16.6,96.7,0,0,0,0
2021-09-27T00:17:00+09:00,0.5,�k��,1,�k�k��,16.6,96.7,0,0,0,0
2021-09-27T00:18:00+09:00,0.5,�k��,1,�k�k��,16.6,96.7,0,0,0,0
2021-09-27T00:19:00+09:00,0.5,�k��,1,�k�k��,16.6,96.7,0,0,0,0
2021-09-27T00:20:00+09:00,0.6,�k�k��,1,�k�k��,16.6,96.8,0,0,0,0
2021-09-27T00:21:00+09:00,0.6,�k��,1.1,�k��,16.6,96.9,0,0,0,0
2021-09-27T00:22:00+09:00,0.7,�k�k��,1.2,�k��,16.6,96.9,0,0,0,0
2021-09-27T00:23:00+09:00,0.7,�k�k��,1.2,�k��,16.6,96.9,0,0,0,0
2021-09-27T00:24:00+09:00,0.8,�k��,1.2,�k��,16.5,96.9,0,0,0,0
2021-09-27T00:25:00+09:00,0.8,�k��,1.2,�k��,16.5,96.9,0,0,0,0
2021-09-27T00:26:00+09:00,0.7,�k��,1.2,�k��,16.6,97,0,0,0,0
2021-09-27T00:27:00+09:00,0.7,���k��,1.2,�k��,16.6,97,0,0,0,0
2021-09-27T00:28:00+09:00,0.7,���k��,1.2,�k��,16.6,97.1,0,0,0,0
2021-09-27T00:29:00+09:00,0.6,���k��,1.2,�k��,16.6,97.1,0,0,0,0
2021-09-27T00:30:00+09:00,0.6,���k��,1.2,�k��,16.5,97,0,0,0,0
2021-09-27T00:31:00+09:00,0.5,���k��,1.2,�k��,16.6,97,0,0,0,0
2021-09-27T00:32:00+09:00,0.4,���k��,1.2,�k��,16.5,97.1,0,0,0,0
2021-09-27T00:33:00+09:00,0.4,���k��,0.9,���k��,16.6,97.1,0,0,0,0
2021-09-27T00:34:00+09:00,0.4,���k��,1,�k�k��,16.5,97.1,0,0,0,0
2021-09-27T00:35:00+09:00,0.4,�k��,1,�k�k��,16.5,97.1,0,0,0,0
2021-09-27T00:36:00+09:00,0.5,�k��,1,�k�k��,16.5,97.1,0,0,0,0
2021-09-27T00:37:00+09:00,0.5,�k��,1,�k�k��,16.5,97.1,0,0,0,0
2021-09-27T00:38:00+09:00,0.6,�k��,1,�k�k��,16.5,97.1,0,0,0,0
2021-09-27T00:39:00+09:00,0.6,�k��,1.4,�k�k��,16.5,97.2,0,0,0,0
2021-09-27T00:40:00+09:00,0.7,�k�k��,1.4,�k�k��,16.5,97.1,0,0,0,0
2021-09-27T00:41:00+09:00,0.8,�k��,1.4,�k�k��,16.5,97.1,0,0,0,0
2021-09-27T00:42:00+09:00,0.8,�k��,1.4,�k�k��,16.4,97.1,0,0,0,0
2021-09-27T00:43:00+09:00,0.9,�k��,1.4,�k�k��,16.4,97.1,0,0,0,0
2021-09-27T00:44:00+09:00,0.9,�k��,1.5,�k�k��,16.5,97.2,0,0,0,0
2021-09-27T00:45:00+09:00,0.9,�k��,1.5,�k�k��,16.4,97.1,0,0,0,0
2021-09-27T00:46:00+09:00,0.9,�k�k��,1.5,�k�k��,16.4,97.1,0,0,0,0
2021-09-27T00:47:00+09:00,0.9,�k�k��,1.5,�k�k��,16.5,97.2,0,0,0,0
2021-09-27T00:48:00+09:00,0.8,�k�k��,1.5,�k�k��,16.5,97.3,0,0,0,0
2021-09-27T00:49:00+09:00,0.7,�k�k��,1.5,�k�k��,16.5,97.2,0,0,0,0
2021-09-27T00:50:00+09:00,0.7,�k�k��,1.5,�k�k��,16.5,97.2,0,0,0,0
2021-09-27T00:51:00+09:00,0.6,�k��,1.5,�k�k��,16.5,97.2,0,0,0,0
2021-09-27T00:52:00+09:00,0.6,�k��,1.5,�k�k��,16.5,97.2,0,0,0,0
2021-09-27T00:53:00+09:00,0.6,�k��,1.5,�k�k��,16.5,97.1,0,0,0,0
2021-09-27T00:54:00+09:00,0.5,�k��,1.1,�k��,16.5,97.2,0,0,0,0
2021-09-27T00:55:00+09:00,0.5,�k��,1.1,�k��,16.4,97.1,0,0,0,0
2021-09-27T00:56:00+09:00,0.5,���k��,1.1,�k��,16.4,97,0,0,0,0
2021-09-27T00:57:00+09:00,0.5,���k��,1.1,�k��,16.4,97,0,0,0,0
2021-09-27T00:58:00+09:00,0.6,���k��,1.1,�k��,16.3,97,0,0,0,0
2021-09-27T00:59:00+09:00,0.7,���k��,1.2,�k��,16.3,97,0,0,0,0
2021-09-27T01:00:00+09:00,0.7,���k��,1.2,�k��,16.3,97,0,0,0,0
2021-09-27T01:01:00+09:00,0.8,���k��,1.3,�k�k��,16.3,97,0,0,0,0
2021-09-27T01:02:00+09:00,0.8,�k��,1.3,�k�k��,16.3,97.1,0,0,0,0
2021-09-27T01:03:00+09:00,0.8,�k��,1.3,�k�k��,16.2,97.1,0,0,0,0
2021-09-27T01:04:00+09:00,0.8,�k��,1.3,�k�k��,16.3,97.1,0,0,0,0
2021-09-27T01:05:00+09:00,0.8,�k��,1.3,�k�k��,16.2,97.1,0,0,0,0
2021-09-27T01:06:00+09:00,0.9,�k��,1.3,�k�k��,16.2,97.1,0,0,0,0
2021-09-27T01:07:00+09:00,0.8,�k�k��,1.3,�k�k��,16.2,97.1,0,0,0,0
2021-09-27T01:08:00+09:00,0.8,�k�k��,1.3,�k�k��,16.3,97.2,0,0,0,0
2021-09-27T01:09:00+09:00,0.7,�k�k��,1.3,�k�k��,16.3,97.3,0,0,0,0
2021-09-27T01:10:00+09:00,0.7,�k,1.3,�k�k��,16.4,97.4,0,0,0,0
2021-09-27T01:11:00+09:00,0.6,�k,1.2,�k�k��,16.2,97.3,0,0,0,0
2021-09-27T01:12:00+09:00,0.7,�k,1.2,�k�k��,16.1,97.1,0,0,0,0
2021-09-27T01:13:00+09:00,0.7,�k,1.2,�k�k��,16.1,97.1,0,0,0,0
2021-09-27T01:14:00+09:00,0.7,�k,1.2,�k�k��,16.1,97.1,0,0,0,0
2021-09-27T01:15:00+09:00,0.7,�k,1.2,�k�k��,16.1,97.2,0,0,0,0
2021-09-27T01:16:00+09:00,0.6,�k,1.2,�k�k��,16.1,97.3,0,0,0,0
2021-09-27T01:17:00+09:00,0.7,�k,1.3,�k�k��,16.1,97.2,0,0,0,0
2021-09-27T01:18:00+09:00,0.8,�k,1.6,�k,16.1,97.2,0,0,0,0
2021-09-27T01:19:00+09:00,0.8,�k�k��,1.6,�k,16.1,97.3,0,0,0,0
2021-09-27T01:20:00+09:00,0.9,�k�k��,1.6,�k,16,97.3,0,0,0,0
2021-09-27T01:21:00+09:00,0.9,�k�k��,1.6,�k,16.1,97.3,0,0,0,0
2021-09-27T01:22:00+09:00,0.8,�k�k��,1.6,�k,16.1,97.4,0,0,0,0
2021-09-27T01:23:00+09:00,0.8,�k�k��,1.6,�k,16.1,97.4,0,0,0,0
2021-09-27T01:24:00+09:00,0.8,�k�k��,1.6,�k,16.1,97.4,0,0,0,0
2021-09-27T01:25:00+09:00,0.8,�k��,1.6,�k,16.1,97.4,0,0,0,0
2021-09-27T01:26:00+09:00,0.8,�k��,1.6,�k,16.1,97.5,0,0,0,0
2021-09-27T01:27:00+09:00,0.8,�k��,1.6,�k,16.1,97.4,0,0,0,0
2021-09-27T01:28:00+09:00,0.8,�k��,1.5,�k�k��,16.1,97.4,0,0,0,0
2021-09-27T01:29:00+09:00,0.9,�k��,1.5,�k�k��,16.1,97.4,0,0,0,0
2021-09-27T01:30:00+09:00,0.8,�k��,1.4,�k��,16.2,97.6,0,0,0,0
2021-09-27T01:31:00+09:00,0.8,�k��,1.4,�k��,16.2,97.5,0,0,0,0
2021-09-27T01:32:00+09:00,0.9,�k��,1.4,�k��,16.3,97.5,0,0,0,0
2021-09-27T01:33:00+09:00,0.9,�k��,1.6,�k��,16.2,97.5,0,0,0,0
2021-09-27T01:34:00+09:00,1,�k�k��,1.6,�k��,16.1,97.4,0,0,0,0
2021-09-27T01:35:00+09:00,1,�k��,1.6,�k��,16,97.3,0,0,0,0
2021-09-27T01:36:00+09:00,1,�k�k��,1.6,�k��,16,97.2,0,0,0,0
2021-09-27T01:37:00+09:00,1,�k�k��,1.6,�k��,16,97.3,0,0,0,0
2021-09-27T01:38:00+09:00,1,�k�k��,1.6,�k��,16,97.4,0,0,0,0
2021-09-27T01:39:00+09:00,1,�k�k��,1.6,�k��,16,97.4,0,0,0,0
2021-09-27T01:40:00+09:00,0.9,�k�k��,1.6,�k��,16.1,97.4,0,0,0,0
2021-09-27T01:41:00+09:00,0.9,�k�k��,1.6,�k��,16.1,97.5,0,0,0,0
2021-09-27T01:42:00+09:00,1,�k�k��,1.6,�k��,16,97.4,0,0,0,0
2021-09-27T01:43:00+09:00,1,�k�k��,1.6,�k�k��,15.9,97.2,0,0,0,0
2021-09-27T01:44:00+09:00,0.9,�k,1.4,�k,15.9,97.2,0,0,0,0
2021-09-27T01:45:00+09:00,1,�k,1.6,�k�k��,16,97.3,0,0,0,0
2021-09-27T01:46:00+09:00,1,�k,1.6,�k�k��,16,97.4,0,0,0,0
2021-09-27T01:47:00+09:00,1,�k,1.6,�k�k��,16,97.4,0,0,0,0
2021-09-27T01:48:00+09:00,1,�k,1.6,�k�k��,16,97.4,0,0,0,0
2021-09-27T01:49:00+09:00,1,�k�k��,1.6,�k�k��,16,97.4,0,0,0,0
2021-09-27T01:50:00+09:00,1.1,�k�k��,1.9,�k��,16,97.5,0,0,0,0
2021-09-27T01:51:00+09:00,1.2,�k�k��,1.9,�k��,16,97.5,0,0,0,0
2021-09-27T01:52:00+09:00,1.3,�k�k��,1.9,�k��,16.2,97.5,0,0,0,0
2021-09-27T01:53:00+09:00,1.3,�k�k��,1.9,�k��,16.1,97.6,0,0,0,0
2021-09-27T01:54:00+09:00,1.4,�k�k��,1.9,�k��,16.1,97.6,0,0,0,0
2021-09-27T01:55:00+09:00,1.4,�k��,1.9,�k��,16.1,97.5,0,0,0,0
2021-09-27T01:56:00+09:00,1.3,�k��,1.9,�k��,16,97.4,0,0,0,0
2021-09-27T01:57:00+09:00,1.4,�k��,1.9,�k��,16,97.4,0,0,0,0
2021-09-27T01:58:00+09:00,1.4,�k��,1.9,�k��,16,97.4,0,0,0,0
2021-09-27T01:59:00+09:00,1.3,���k��,1.9,�k��,16,97.4,0,0,0,0
2021-09-27T02:00:00+09:00,1.3,���k��,1.9,�k��,16,97.4,0,0,0,0
2021-09-27T02:01:00+09:00,1.2,���k��,1.7,���k��,16,97.4,0,0,0,0
2021-09-27T02:02:00+09:00,1.2,���k��,1.7,���k��,16,97.4,0,0,0,0
2021-09-27T02:03:00+09:00,1.1,���k��,1.7,���k��,15.9,97.3,0,0,0,0
2021-09-27T02:04:00+09:00,1.1,���k��,1.7,���k��,15.9,97.3,0,0,0,0
2021-09-27T02:05:00+09:00,1.2,���k��,2,���k��,15.9,97.3,0,0,0,0
2021-09-27T02:06:00+09:00,1.3,���k��,2.6,���k��,15.9,97.3,0,0,0,0
2021-09-27T02:07:00+09:00,1.4,���k��,2.6,���k��,15.9,97.3,0,0,0,0
2021-09-27T02:08:00+09:00,1.4,���k��,2.6,���k��,15.9,97.4,0,0,0,0
2021-09-27T02:09:00+09:00,1.4,���k��,2.6,���k��,15.9,97.4,0,0,0,0
2021-09-27T02:10:00+09:00,1.4,���k��,2.6,���k��,16,97.5,0,0,0,0
2021-09-27T02:11:00+09:00,1.4,�k��,2.6,���k��,15.9,97.3,0,0,0,0
2021-09-27T02:12:00+09:00,1.4,�k��,2.6,���k��,15.9,97.3,0,0,0,0
2021-09-27T02:13:00+09:00,1.5,�k��,2.6,���k��,15.9,97.3,0,0,0,0
2021-09-27T02:14:00+09:00,1.5,�k��,2.6,���k��,16,97.4,0,0,0,0
2021-09-27T02:15:00+09:00,1.5,�k�k��,2.6,���k��,15.9,97.4,0,0,0,0
2021-09-27T02:16:00+09:00,1.5,�k�k��,2.6,���k��,15.9,97.3,0,0,0,0
2021-09-27T02:17:00+09:00,1.4,�k�k��,2.4,�k�k��,15.8,97.2,0,0,0,0
2021-09-27T02:18:00+09:00,1.5,�k�k��,2.4,�k�k��,15.8,97.1,0,0,0,0
2021-09-27T02:19:00+09:00,1.5,�k�k��,2.4,�k�k��,15.7,97.1,0,0,0,0
2021-09-27T02:20:00+09:00,1.5,�k�k��,2.4,�k�k��,15.7,97.2,0,0,0,0
2021-09-27T02:21:00+09:00,1.6,�k�k��,2.4,�k�k��,15.8,97.3,0,0,0,0
2021-09-27T02:22:00+09:00,1.6,�k�k��,2.4,�k�k��,15.8,97.3,0,0,0,0
2021-09-27T02:23:00+09:00,1.6,�k�k��,2.1,�k�k��,15.8,97.3,0,0,0,0
2021-09-27T02:24:00+09:00,1.6,�k�k��,2.1,�k�k��,15.8,97.4,0,0,0,0
2021-09-27T02:25:00+09:00,1.5,�k��,2.1,�k�k��,15.8,97.4,0,0,0,0
2021-09-27T02:26:00+09:00,1.5,�k��,2.1,�k�k��,15.8,97.4,0,0,0,0
2021-09-27T02:27:00+09:00,1.5,�k��,2.1,�k��,15.8,97.4,0,0,0,0
2021-09-27T02:28:00+09:00,1.4,�k��,2.1,�k��,15.8,97.4,0,0,0,0
2021-09-27T02:29:00+09:00,1.3,�k��,2.1,�k��,15.7,97.4,0,0,0,0
2021-09-27T02:30:00+09:00,1.3,�k��,2.1,�k��,15.7,97.4,0,0,0,0
2021-09-27T02:31:00+09:00,1.2,�k��,2.1,�k��,15.8,97.4,0,0,0,0
2021-09-27T02:32:00+09:00,1.2,�k��,2.1,�k��,15.8,97.4,0,0,0,0
2021-09-27T02:33:00+09:00,1.1,�k��,2.1,�k��,15.8,97.5,0,0,0,0
2021-09-27T02:34:00+09:00,1.1,�k��,1.8,�k��,15.8,97.5,0,0,0,0
2021-09-27T02:35:00+09:00,1.1,�k��,1.8,�k��,15.8,97.5,0,0,0,0
2021-09-27T02:36:00+09:00,1.1,�k��,1.7,�k��,15.9,97.5,0,0,0,0
2021-09-27T02:37:00+09:00,1,�k��,1.7,�k��,15.8,97.5,0,0,0,0
2021-09-27T02:38:00+09:00,1,�k��,1.7,�k��,16,97.6,0,0,0,0
2021-09-27T02:39:00+09:00,0.9,�k�k��,1.7,�k��,16.1,97.6,0,0,0,0
2021-09-27T02:40:00+09:00,0.9,�k�k��,1.7,�k��,16,97.6,0,0,0,0
2021-09-27T02:41:00+09:00,0.9,�k�k��,1.7,�k��,15.9,97.5,0,0,0,0
2021-09-27T02:42:00+09:00,0.9,�k�k��,1.7,�k��,15.9,97.4,0,0,0,0
2021-09-27T02:43:00+09:00,0.8,�k�k��,1.7,�k��,15.9,97.3,0,0,0,0
2021-09-27T02:44:00+09:00,0.8,�k�k��,1.6,�k�k��,15.8,97.2,0,0,0,0
2021-09-27T02:45:00+09:00,0.7,�k�k��,1.5,�k��,15.8,97.2,0,0,0,0
2021-09-27T02:46:00+09:00,0.6,�k�k��,1.3,���k��,15.8,97.2,0,0,0,0
2021-09-27T02:47:00+09:00,0.5,�k�k��,1.3,���k��,15.8,97.2,0,0,0,0
2021-09-27T02:48:00+09:00,0.6,�k�k��,1.3,���k��,15.7,97.2,0,0,0,0
2021-09-27T02:49:00+09:00,0.6,�k��,1.3,���k��,15.7,97.2,0,0,0,0
2021-09-27T02:50:00+09:00,0.6,�k��,1.4,��,15.7,97.1,0,0,0,0
2021-09-27T02:51:00+09:00,0.7,���k��,1.4,��,15.8,97.2,0,0,0,0
2021-09-27T02:52:00+09:00,0.7,���k��,1.5,���k��,15.8,97.4,0,0,0,0
2021-09-27T02:53:00+09:00,0.8,���k��,1.5,���k��,15.8,97.3,0,0,0,0
2021-09-27T02:54:00+09:00,0.8,���k��,1.7,�k��,15.8,97.2,0,0,0,0
2021-09-27T02:55:00+09:00,0.9,���k��,1.7,�k��,15.9,97.5,0,0,0,0
2021-09-27T02:56:00+09:00,1,���k��,1.7,�k��,15.8,97.3,0,0,0,0
2021-09-27T02:57:00+09:00,1.1,���k��,1.8,��,15.8,97.2,0,0,0,0
2021-09-27T02:58:00+09:00,1.1,���k��,1.8,��,15.8,97.2,0,0,0,0
2021-09-27T02:59:00+09:00,1.2,���k��,1.8,��,15.8,97.2,0,0,0,0
2021-09-27T03:00:00+09:00,1.2,���k��,2,���k��,15.8,97.2,0,0,0,0
2021-09-27T03:01:00+09:00,1.2,���k��,2,���k��,15.7,97.2,0,0,0,0
2021-09-27T03:02:00+09:00,1.3,���k��,2,���k��,15.7,97.1,0,0,0,0
2021-09-27T03:03:00+09:00,1.3,���k��,2,���k��,15.7,97.2,0,0,0,0
2021-09-27T03:04:00+09:00,1.3,���k��,2,���k��,15.7,97.2,0,0,0,0
2021-09-27T03:05:00+09:00,1.3,���k��,2,���k��,15.8,97.3,0,0,0,0
2021-09-27T03:06:00+09:00,1.3,���k��,2,���k��,15.8,97.4,0,0,0,0
2021-09-27T03:07:00+09:00,1.2,���k��,2,���k��,15.8,97.3,0,0,0,0
2021-09-27T03:08:00+09:00,1.1,���k��,2,���k��,15.9,97.3,0,0,0,0
2021-09-27T03:09:00+09:00,1.1,�k��,2,���k��,15.8,97.3,0,0,0,0
2021-09-27T03:10:00+09:00,1,�k��,1.9,�k��,15.9,97.2,0,0,0,0
2021-09-27T03:11:00+09:00,0.9,�k��,1.9,�k��,15.8,97.2,0,0,0,0
2021-09-27T03:12:00+09:00,0.8,�k��,1.9,�k��,15.7,97.1,0,0,0,0
2021-09-27T03:13:00+09:00,0.8,�k��,1.6,���k��,15.7,97.1,0,0,0,0
2021-09-27T03:14:00+09:00,0.7,�k��,1.4,�k,15.8,97.1,0,0,0,0
2021-09-27T03:15:00+09:00,0.8,�k�k��,1.7,�k�k��,15.7,97.1,0,0,0,0
2021-09-27T03:16:00+09:00,0.8,�k�k��,1.7,�k�k��,15.6,96.9,0,0,0,0
2021-09-27T03:17:00+09:00,0.8,�k�k��,1.7,�k�k��,15.5,96.9,0,0,0,0
2021-09-27T03:18:00+09:00,0.9,�k�k��,1.7,�k�k��,15.5,96.9,0,0,0,0
2021-09-27T03:19:00+09:00,0.9,�k�k��,1.7,�k�k��,15.5,97,0,0,0,0
2021-09-27T03:20:00+09:00,0.8,�k,1.7,�k�k��,15.6,97.1,0,0,0,0
2021-09-27T03:21:00+09:00,0.8,�k,1.7,�k�k��,15.6,97.2,0,0,0,0
2021-09-27T03:22:00+09:00,0.8,�k,1.7,�k�k��,15.5,97,0,0,0,0
2021-09-27T03:23:00+09:00,0.8,�k,1.7,�k�k��,15.5,97,0,0,0,0
2021-09-27T03:24:00+09:00,0.7,�k�k��,1.7,�k�k��,15.5,97.1,0,0,0,0
2021-09-27T03:25:00+09:00,0.7,�k�k��,1.3,�k,15.5,97.1,0,0,0,0
2021-09-27T03:26:00+09:00,0.7,�k�k��,1.6,�k,15.5,97.1,0,0,0,0
2021-09-27T03:27:00+09:00,0.7,�k�k��,1.6,�k,15.5,97.2,0,0,0,0
2021-09-27T03:28:00+09:00,0.7,�k�k��,1.6,�k,15.5,97.2,0,0,0,0
2021-09-27T03:29:00+09:00,0.8,�k�k��,1.6,�k,15.5,97.2,0,0,0,0
2021-09-27T03:30:00+09:00,0.9,�k�k��,1.6,�k,15.5,97.2,0,0,0,0
2021-09-27T03:31:00+09:00,0.9,�k�k��,1.6,�k,15.5,97.2,0,0,0,0
2021-09-27T03:32:00+09:00,0.9,�k�k��,1.6,�k,15.5,97.2,0,0,0,0
2021-09-27T03:33:00+09:00,1,�k�k��,1.6,�k,15.5,97.2,0,0,0,0
2021-09-27T03:34:00+09:00,0.9,�k�k��,1.6,�k,15.5,97.3,0,0,0,0
2021-09-27T03:35:00+09:00,0.9,�k�k��,1.6,�k,15.5,97.2,0,0,0,0
2021-09-27T03:36:00+09:00,0.8,�k��,1.6,�k,15.6,97.3,0,0,0,0
2021-09-27T03:37:00+09:00,0.8,�k��,1.5,�k�k��,15.6,97.5,0,0,0,0
2021-09-27T03:38:00+09:00,0.8,�k��,1.8,�k��,15.6,97.4,0,0,0,0
2021-09-27T03:39:00+09:00,0.9,�k��,2.3,���k��,15.6,97.4,0,0,0,0
2021-09-27T03:40:00+09:00,0.9,���k��,2.3,���k��,15.6,97.3,0,0,0,0
2021-09-27T03:41:00+09:00,1,���k��,2.5,���k��,15.6,97.3,0,0,0,0
2021-09-27T03:42:00+09:00,1,���k��,2.5,���k��,15.6,97.4,0,0,0,0
2021-09-27T03:43:00+09:00,1.1,���k��,2.5,���k��,15.6,97.3,0,0,0,0
2021-09-27T03:44:00+09:00,1.2,���k��,2.5,���k��,15.6,97.3,0,0,0,0
2021-09-27T03:45:00+09:00,1.2,���k��,2.5,���k��,15.6,97.3,0,0,0,0
2021-09-27T03:46:00+09:00,1.4,���k��,3.2,���k��,15.7,97.3,0,0,0,0
2021-09-27T03:47:00+09:00,1.6,���k��,3.4,���k��,15.7,97.3,0,0,0,0
2021-09-27T03:48:00+09:00,1.7,���k��,3.4,���k��,15.8,97.3,0,0,0,0
2021-09-27T03:49:00+09:00,1.6,���k��,3.4,���k��,15.7,97.3,0,0,0,0
2021-09-27T03:50:00+09:00,1.6,���k��,3.4,���k��,15.6,97.1,0,0,0,0
2021-09-27T03:51:00+09:00,1.6,�k��,3.4,���k��,15.6,97,0,0,0,0
2021-09-27T03:52:00+09:00,1.5,�k��,3.4,���k��,15.6,97,0,0,0,0
2021-09-27T03:53:00+09:00,1.5,�k��,3.4,���k��,15.5,97,0,0,0,0
2021-09-27T03:54:00+09:00,1.4,�k��,3.4,���k��,15.5,96.9,0,0,0,0
2021-09-27T03:55:00+09:00,1.4,�k��,3.4,���k��,15.5,96.9,0,0,0,0
2021-09-27T03:56:00+09:00,1.3,�k��,3.4,���k��,15.5,96.9,0,0,0,0
2021-09-27T03:57:00+09:00,1.1,�k�k��,2.8,���k��,15.4,96.9,0,0,0,0
2021-09-27T03:58:00+09:00,1,�k�k��,2,�k�k��,15.3,96.9,0,0,0,0
2021-09-27T03:59:00+09:00,1,�k�k��,2.3,�k,15.3,96.8,0,0,0,0
2021-09-27T04:00:00+09:00,1,�k�k��,2.3,�k,15.3,96.8,0,0,0,0
2021-09-27T04:01:00+09:00,1.1,�k�k��,2.3,�k,15.3,96.9,0,0,0,0
2021-09-27T04:02:00+09:00,1.1,�k�k��,2.3,�k,15.3,97,0,0,0,0
2021-09-27T04:03:00+09:00,1.2,�k�k��,2.3,�k,15.3,97.1,0,0,0,0
2021-09-27T04:04:00+09:00,1.2,�k�k��,2.3,�k,15.4,97.2,0,0,0,0
2021-09-27T04:05:00+09:00,1.2,�k�k��,2.3,�k,15.3,97.2,0,0,0,0
2021-09-27T04:06:00+09:00,1.2,�k�k��,2.3,�k,15.3,97.1,0,0,0,0
2021-09-27T04:07:00+09:00,1.2,�k,2.3,�k,15.3,97.1,0,0,0,0
2021-09-27T04:08:00+09:00,1.2,�k�k��,2.3,�k,15.3,97.1,0,0,0,0
2021-09-27T04:09:00+09:00,1.2,�k�k��,2,�k�k��,15.3,97.2,0,0,0,0
2021-09-27T04:10:00+09:00,1.2,�k�k��,2,�k�k��,15.3,97.2,0,0,0,0
2021-09-27T04:11:00+09:00,1.3,�k�k��,2,�k�k��,15.3,97.4,0,0,0,0
2021-09-27T04:12:00+09:00,1.3,�k�k��,2,�k�k��,15.3,97.2,0,0,0,0
2021-09-27T04:13:00+09:00,1.3,�k�k��,2,�k�k��,15.3,97.2,0,0,0,0
2021-09-27T04:14:00+09:00,1.3,�k�k��,2,�k�k��,15.2,97.2,0,0,0,0
2021-09-27T04:15:00+09:00,1.3,�k��,2,�k�k��,15.2,97.2,0,0,0,0
2021-09-27T04:16:00+09:00,1.3,�k��,2,�k�k��,15.3,97.3,0,0,0,0
2021-09-27T04:17:00+09:00,1.4,�k��,2.2,�k�k��,15.2,97.3,0,0,0,0
2021-09-27T04:18:00+09:00,1.4,�k��,2.2,�k�k��,15.2,97.3,0,0,0,0
2021-09-27T04:19:00+09:00,1.3,�k��,2.2,�k�k��,15.2,97.3,0,0,0,0
2021-09-27T04:20:00+09:00,1.3,�k�k��,2.2,�k�k��,15.3,97.4,0,0,0,0
2021-09-27T04:21:00+09:00,1.2,�k�k��,2.2,�k�k��,15.3,97.5,0,0,0,0
2021-09-27T04:22:00+09:00,1.2,�k��,2.2,�k�k��,15.6,97.7,0,0,0,0
2021-09-27T04:23:00+09:00,1.3,�k��,2.2,�k�k��,15.5,97.6,0,0,0,0
2021-09-27T04:24:00+09:00,1.3,�k�k��,2.2,�k�k��,15.5,97.6,0,0,0,0
2021-09-27T04:25:00+09:00,1.3,�k�k��,2.2,�k�k��,15.5,97.6,0,0,0,0
2021-09-27T04:26:00+09:00,1.4,�k�k��,2.2,�k�k��,15.4,97.5,0,0,0,0
2021-09-27T04:27:00+09:00,1.4,�k�k��,2.1,�k��,15.5,97.5,0,0,0,0
2021-09-27T04:28:00+09:00,1.5,�k�k��,2.5,�k�k��,15.6,97.6,0,0,0,0
2021-09-27T04:29:00+09:00,1.6,�k��,2.5,�k�k��,15.6,97.6,0,0,0,0
2021-09-27T04:30:00+09:00,1.6,�k��,2.5,�k�k��,15.6,97.6,0,0,0,0
2021-09-27T04:31:00+09:00,1.6,�k��,2.5,�k�k��,15.6,97.6,0,0,0,0
2021-09-27T04:32:00+09:00,1.7,�k��,2.5,�k�k��,15.6,97.4,0,0,0,0
2021-09-27T04:33:00+09:00,1.6,�k��,2.5,�k�k��,15.5,97.4,0,0,0,0
2021-09-27T04:34:00+09:00,1.6,�k��,2.5,�k�k��,15.5,97.3,0,0,0,0
2021-09-27T04:35:00+09:00,1.6,�k��,2.5,�k�k��,15.5,97.3,0,0,0,0
2021-09-27T04:36:00+09:00,1.5,�k��,2.5,�k�k��,15.5,97.3,0,0,0,0
2021-09-27T04:37:00+09:00,1.4,�k��,2.5,�k�k��,15.5,97.3,0,0,0,0
2021-09-27T04:38:00+09:00,1.4,�k��,2.4,�k��,15.4,97.2,0,0,0,0
2021-09-27T04:39:00+09:00,1.4,�k��,2.8,�k�k��,15.4,97.2,0,0,0,0
2021-09-27T04:40:00+09:00,1.3,�k��,2.8,�k�k��,15.4,97.1,0,0,0,0
2021-09-27T04:41:00+09:00,1.3,�k��,2.8,�k�k��,15.4,97.1,0,0,0,0
2021-09-27T04:42:00+09:00,1.3,�k��,2.8,�k�k��,15.3,97.1,0,0,0,0
2021-09-27T04:43:00+09:00,1.3,�k��,2.8,�k�k��,15.3,97,0,0,0,0
2021-09-27T04:44:00+09:00,1.3,�k��,2.8,�k�k��,15.3,97,0,0,0,0
2021-09-27T04:45:00+09:00,1.4,�k��,2.8,�k�k��,15.3,97,0,0,0,0
2021-09-27T04:46:00+09:00,1.4,�k��,2.8,�k�k��,15.2,97,0,0,0,0
2021-09-27T04:47:00+09:00,1.3,�k��,2.8,�k�k��,15.2,97.1,0,0,0,0
2021-09-27T04:48:00+09:00,1.3,�k��,2.8,�k�k��,15.2,97.1,0,0,0,0
2021-09-27T04:49:00+09:00,1.3,�k��,2.4,��,15.1,97,0,0,0,0
2021-09-27T04:50:00+09:00,1.2,�k��,2.4,��,15,96.9,0,0,0,0
2021-09-27T04:51:00+09:00,1.2,�k��,2,�k��,15.1,97,0,0,0,0
2021-09-27T04:52:00+09:00,1.2,�k�k��,2,�k��,15.1,97.2,0,0,0,0
2021-09-27T04:53:00+09:00,1.2,�k�k��,2,�k��,15,97.1,0,0,0,0
2021-09-27T04:54:00+09:00,1.1,�k�k��,1.8,�k�k��,15,97,0,0,0,0
2021-09-27T04:55:00+09:00,1,�k�k��,1.8,�k�k��,15.1,97.1,0,0,0,0
2021-09-27T04:56:00+09:00,1,�k�k��,1.8,�k�k��,15,97.1,0,0,0,0
2021-09-27T04:57:00+09:00,1.1,�k�k��,1.8,�k�k��,15,97.1,0,0,0,0
2021-09-27T04:58:00+09:00,1,�k�k��,1.8,�k�k��,15,97.2,0,0,0,0
2021-09-27T04:59:00+09:00,1,�k�k��,1.8,�k�k��,15,97.3,0,0,0,0
2021-09-27T05:00:00+09:00,1,�k�k��,1.7,�k�k��,15.1,97.3,0,0,0,0
2021-09-27T05:01:00+09:00,1,�k�k��,1.7,�k�k��,15,97.3,0,0,0,0
2021-09-27T05:02:00+09:00,1,�k�k��,1.7,�k�k��,15,97.3,0,0,0,0
2021-09-27T05:03:00+09:00,1,�k�k��,1.7,�k�k��,15,97.3,0,0,0,0
2021-09-27T05:04:00+09:00,1,�k�k��,1.7,�k�k��,15,97.3,0,0,0,0
2021-09-27T05:05:00+09:00,1.1,�k�k��,1.7,�k�k��,15,97.3,0,0,0,0
2021-09-27T05:06:00+09:00,1.1,�k��,1.7,�k�k��,15,97.4,0,0,0,0
2021-09-27T05:07:00+09:00,1.1,�k��,1.7,�k�k��,15.1,97.4,0,0,0,0
2021-09-27T05:08:00+09:00,1.1,�k�k��,1.7,�k�k��,15.1,97.5,0,0,0,0
2021-09-27T05:09:00+09:00,1.1,�k�k��,1.7,�k�k��,15.1,97.5,0,0,0,0
2021-09-27T05:10:00+09:00,1.1,�k�k��,1.7,�k�k��,15.2,97.6,0,0,0,0
2021-09-27T05:11:00+09:00,1.1,�k�k��,1.7,�k�k��,15.3,97.6,0,0,0,0
2021-09-27T05:12:00+09:00,1,�k�k��,1.5,�k��,15.2,97.6,0,0,0,0
2021-09-27T05:13:00+09:00,1,�k�k��,1.5,�k��,15.3,97.6,0,0,0,0
2021-09-27T05:14:00+09:00,0.9,�k��,1.5,�k��,15.2,97.5,0,0,0,0
2021-09-27T05:15:00+09:00,0.9,�k��,1.2,�k��,15.2,97.4,0,0,0,0
2021-09-27T05:16:00+09:00,0.9,�k��,1.2,�k��,15.2,97.4,0,0,0,0
2021-09-27T05:17:00+09:00,0.8,�k��,1.2,�k��,15.2,97.5,0,0,0,0
2021-09-27T05:18:00+09:00,0.8,���k��,1.2,�k��,15.2,97.4,0,0,0,0
2021-09-27T05:19:00+09:00,0.8,���k��,1.2,�k��,15.2,97.4,0,0,0,0
2021-09-27T05:20:00+09:00,0.7,���k��,1.2,�k��,15.2,97.5,0,0,0,0
2021-09-27T05:21:00+09:00,0.7,��,1.2,�k��,15.2,97.4,0,0,0,0
2021-09-27T05:22:00+09:00,0.6,��,1.1,��,15.2,97.4,0,0,0,0
2021-09-27T05:23:00+09:00,0.6,��,1.1,��,15.2,97.4,0,0,0,0
2021-09-27T05:24:00+09:00,0.6,��,1.1,��,15.2,97.4,0,0,0,0
2021-09-27T05:25:00+09:00,0.6,��,1,���쐼,15.2,97.4,0,0,0,0
2021-09-27T05:26:00+09:00,0.5,��,1,���쐼,15.1,97.3,0,0,0,0
2021-09-27T05:27:00+09:00,0.6,��,1,���쐼,15.1,97.3,0,0,0,0
2021-09-27T05:28:00+09:00,0.6,��,1.2,���쐼,15.1,97.3,0,0,0,0
2021-09-27T05:29:00+09:00,0.6,��,1.2,���쐼,15.1,97.3,0,0,0,0
2021-09-27T05:30:00+09:00,0.6,��,1.2,���쐼,15,97.2,0,0,0,0
2021-09-27T05:31:00+09:00,0.6,��,1.2,���쐼,15,97.3,0,0,0,0
2021-09-27T05:32:00+09:00,0.6,��,1.2,���쐼,15,97.3,0,0,0,0
2021-09-27T05:33:00+09:00,0.6,��,1.2,���쐼,15,97.2,0,0,0,0
2021-09-27T05:34:00+09:00,0.6,��,1.2,���쐼,15,97.3,0,0,0,0
2021-09-27T05:35:00+09:00,0.5,��,1.2,���쐼,15,97.3,0,0,0,0
2021-09-27T05:36:00+09:00,0.5,��,1.2,���쐼,15,97.4,0,0,0,0
2021-09-27T05:37:00+09:00,0.5,���k��,1.2,���쐼,15,97.4,0,0,0,0
2021-09-27T05:38:00+09:00,0.5,���k��,1,���k��,15,97.4,0,0,0,0
2021-09-27T05:39:00+09:00,0.5,���k��,1.2,���k��,15,97.4,0,0,0,0
2021-09-27T05:40:00+09:00,0.5,���k��,1.3,���k��,15,97.4,0,0,0,0
2021-09-27T05:41:00+09:00,0.6,�k��,1.3,���k��,15,97.4,0,0,0,0
2021-09-27T05:42:00+09:00,0.7,�k��,1.4,�k�k��,15,97.4,0,0,0,0
2021-09-27T05:43:00+09:00,0.7,�k��,1.4,�k�k��,15,97.4,0,0,0,0
2021-09-27T05:44:00+09:00,0.8,�k��,1.5,�k�k��,14.9,97.4,0,0,0,0
2021-09-27T05:45:00+09:00,0.9,�k��,1.6,�k�k��,14.9,97.2,0,0,0,0
2021-09-27T05:46:00+09:00,1,�k��,1.6,�k�k��,14.8,97.2,0,0,0,0
2021-09-27T05:47:00+09:00,1.1,�k��,1.6,�k�k��,14.8,97.2,0,0,0,0
2021-09-27T05:48:00+09:00,1.2,�k��,1.7,�k�k��,14.7,97.3,0,0,0,0
2021-09-27T05:49:00+09:00,1.2,�k��,1.7,�k�k��,14.7,97.2,0,0,0,0
2021-09-27T05:50:00+09:00,1.2,�k�k��,1.7,�k�k��,14.7,97.3,0,0,0,0
2021-09-27T05:51:00+09:00,1.2,�k�k��,1.7,�k�k��,14.7,97.4,0,0,0,0
2021-09-27T05:52:00+09:00,1.2,�k�k��,1.7,�k�k��,14.8,97.4,0,0,0,0
2021-09-27T05:53:00+09:00,1.1,�k�k��,1.7,�k�k��,14.7,97.4,0,0,0,0
2021-09-27T05:54:00+09:00,1.1,�k�k��,1.7,�k�k��,14.7,97.4,0,0,0,0
2021-09-27T05:55:00+09:00,1.1,�k�k��,1.7,�k�k��,14.7,97.5,0,0,0,0
2021-09-27T05:56:00+09:00,1,�k�k��,1.7,�k�k��,14.8,97.5,0,0,0,0
2021-09-27T05:57:00+09:00,1,�k�k��,1.7,�k�k��,14.9,97.6,0,0,0,0
2021-09-27T05:58:00+09:00,1,�k�k��,1.7,�k�k��,14.9,97.7,0,0,0,0
2021-09-27T05:59:00+09:00,1,�k�k��,1.7,�k�k��,14.9,97.6,0,0,0,0
2021-09-27T06:00:00+09:00,1,�k�k��,1.7,�k�k��,14.8,97.6,0,0,0,0
2021-09-27T06:01:00+09:00,1,�k�k��,1.7,�k�k��,14.8,97.5,0,0,0,0
2021-09-27T06:02:00+09:00,1,�k�k��,1.7,�k�k��,14.8,97.6,0,0,0,0
2021-09-27T06:03:00+09:00,1,�k�k��,1.7,�k�k��,14.7,97.5,0,0,0,0
2021-09-27T06:04:00+09:00,1,�k�k��,1.7,�k�k��,14.7,97.5,0,0,0,0
2021-09-27T06:05:00+09:00,1,�k�k��,1.7,�k�k��,14.6,97.5,0,0,0,0
2021-09-27T06:06:00+09:00,1.1,�k�k��,1.7,�k�k��,14.6,97.5,0,0,0,0
2021-09-27T06:07:00+09:00,1,�k�k��,1.7,�k�k��,14.6,97.5,0,0,0,0
2021-09-27T06:08:00+09:00,1,�k�k��,1.7,�k�k��,14.6,97.6,0,0,0,0
2021-09-27T06:09:00+09:00,0.9,�k,1.7,�k�k��,14.6,97.6,0,0,0,0
2021-09-27T06:10:00+09:00,0.9,�k,1.7,�k�k��,14.7,97.6,0,0,0,0
2021-09-27T06:11:00+09:00,0.9,�k,1.5,�k�k��,14.7,97.6,0,0,0,0
2021-09-27T06:12:00+09:00,0.9,�k,1.5,�k�k��,14.7,97.6,0,0,0,0
2021-09-27T06:13:00+09:00,0.9,�k,1.5,�k�k��,14.7,97.7,0,0,0,0
2021-09-27T06:14:00+09:00,0.9,�k,1.5,�k�k��,14.7,97.7,0,0,0,0
2021-09-27T06:15:00+09:00,0.9,�k,1.5,�k�k��,14.7,97.7,0,0,0,0
2021-09-27T06:16:00+09:00,0.8,�k,1.5,�k�k��,14.7,97.7,0,0,0,0
2021-09-27T06:17:00+09:00,0.8,�k,1.5,�k�k��,14.7,97.6,0,0,0,0
2021-09-27T06:18:00+09:00,0.9,�k�k��,1.5,�k�k��,14.7,97.6,0,0,0,0